Flag for U.S.A. Weather past 2 weeks in Salem, Oregon, U.S.A.

Now
44 °F

Clear.


Feels Like: 43 °F
Forecast: 28 / 53 °F
Wind: 3 mph from Northwest

Location: McNary Field

Current Time: Feb 28, 2015 at 9:02:37 PM

Latest Report: Feb 28, 2015 at 7:56 PM


Visibility: 10 mi

Pressure: 30.16 "Hg

Humidity: 53%

Dew point: 28 °F

Location of SalemLocation

Historic Weather in Salem — Graph

°F

Salem temperature yesterday

Maximum temperature yesterday: 53 °F (at 12:56 PM)
Minimum temperature yesterday: 46 °F (at 10:56 PM)
Average temperature yesterday: 49 °F

Past Weeks' High & Low Weather Summary

 TemperatureHumidityPressure
High66 °F (Feb 16, 1:56 PM)97% (Feb 13, 7:56 PM)30.47 "Hg (Feb 13, 7:56 PM)
Low29 °F (Feb 23, 3:56 AM)19% (Feb 22, 3:56 PM)29.70 "Hg (Feb 27, 3:01 PM)
Average49 °F67%30.21 "Hg
* Reported Feb 13 7:56 PM — Feb 28 7:56 PM, Salem, Weather by CustomWeather, © 2015

Note: Actual official high and low records may vary slightly from our data, if they occured in-between our weather recording intervals... More about our weather records

Advertising

Salem weather history for previous 24 hours

 ConditionsComfort  
Time TempWeatherWind HumidityBarometerVisibility
7:56 PM
Sat, Feb 28
44 °FClear.3 mph53%30.16 "Hg10 mi
6:56 PM50 °FClear.5 mph36%30.14 "Hg10 mi
5:56 PM52 °FSunny.8 mph32%30.11 "Hg10 mi
4:56 PM56 °FSunny.14 mph28%30.10 "Hg10 mi
3:56 PM57 °FSunny.14 mph27%30.10 "Hg10 mi
2:56 PM57 °FSunny.16 mph31%30.09 "Hg10 mi
1:56 PM56 °FSunny.16 mph32%30.09 "Hg10 mi
12:56 PM55 °FSunny.12 mph35%30.09 "Hg10 mi
11:56 AM54 °FSunny.15 mph37%30.10 "Hg10 mi
10:56 AM53 °FSunny.17 mph41%30.09 "Hg10 mi
9:56 AM50 °FSunny.14 mph50%30.06 "Hg10 mi
8:56 AM47 °FSunny.7 mph64%30.04 "Hg10 mi
7:56 AM37 °FSunny.No wind93%30.01 "Hg10 mi
6:56 AM35 °FSunny.3 mph92%29.98 "Hg10 mi
5:56 AM37 °FClear.No wind89%29.96 "Hg10 mi
4:56 AM39 °FClear.No wind89%29.93 "Hg10 mi
3:56 AM42 °FPassing clouds.No wind79%29.90 "Hg10 mi
2:56 AM43 °FPassing clouds.6 mph79%29.87 "Hg10 mi
1:56 AM45 °FOvercast.6 mph82%29.86 "Hg10 mi
12:56 AM46 °FOvercast.9 mph83%29.83 "Hg10 mi
11:56 PM
Fri, Feb 27
46 °FOvercast.7 mph86%29.80 "Hg10 mi
10:56 PM46 °FMostly cloudy.No wind89%29.79 "Hg10 mi
9:56 PM47 °FMostly cloudy.5 mph90%29.77 "Hg10 mi
Weather by CustomWeather, © 2015

See weather overviewHow to use our weather pages